Location: Br�znic
(45.9167°N, 22.6500°E)
Time: 07:11:33
(UTC+00:00)

Resurs 1-3 - Pass Details

Date: 03 March 2021
Orbit: 630 x 633 km, 97.9° (Epoch: 10 April)

Event Time Altitude Azimuth Distance (km) Brightness Sun altitude
Exits shadow 18:01:25 33° 64° (ENE) 1,061 4.3 -18.6°
Drops below altitude 10° 18:05:15 10° 4° (N) 2,027 6.3 -19.2°
Sets 18:07:36 0° 356° (N) 2,940 7.2 -19.6°
